Regional Weather Roundup
Issued by NWS Albany, NY

Home | Current Version | Previous Version | Graphics & Text | Print | Product List | Glossary Off
Versions: 1 2 3 4 5 6 7 8 9 10 11 12 13 14 15 16 17 18 19 20 21 22 23 24 25 26 27 28 29 30 31 32 33 34 35 36 37 38 39 40 41 42 43 44 45 46 47 48

000
ASUS41 KALY 020010
RWRALY

NEW YORK STATE HOURLY WEATHER ROUNDUP
NATIONAL WEATHER SERVICE ALBANY NY
700 PM EST SUN MAR 01 2015

NOTE: "FAIR" INDICATES FEW OR NO CLOUDS BELOW 12,000 FEET WITH NO
SIGNIFICANT WEATHER AND/OR NO OBSTRUCTIONS TO VISIBILITY.

NYZ032-033-038>043-046>054-057>066-NYZ062>081-020100-
EAST


CITY           SKY/WX    TMP DP  RH WIND       PRES   REMARKS
ALBANY         LGT SNOW  24  19  81 S13       30.25F VSB 1   WCI  12
GLENS FALLS    LGT SNOW  23  19  85 SW8       30.24F FOG     WCI  14
POUGHKEEPSIE   LGT SNOW  25  21  85 S3        30.31F FOG
NEWBURGH       LGT SNOW  23  21  93 CALM      30.29F VSB 1
MONTGOMERY     LGT SNOW  23  21  92 CALM      30.27F FOG
WHITE PLAINS   SNOW      24  21  88 CALM      30.28F VSB 1/2
ISLIP          SNOW      27  24  89 CALM      30.31F VSB 1/2
NEW YORK CITY  LGT SNOW  27  23  85 S3        30.32F FOG
CENTRAL PARK   LGT SNOW  28  22  78 CALM      30.33F
$$

NYZ005>009-017-018-044>046-055-056-020100-
CENTRAL


CITY           SKY/WX    TMP DP  RH WIND       PRES   REMARKS
FULTON         LGT SNOW  25  22  88 CALM      30.18F FOG
SYRACUSE       LGT SNOW  22  21  98 E5        30.18F FOG     WCI  15
ROME           LGT SNOW  22  20  92 SE7       30.21F FOG     WCI  13
ELMIRA         LGT SNOW  25  25 100 CALM      30.17F VSB 1
BINGHAMTON     LGT SNOW  22  20  92 S5        30.14F FOG     WCI  16
MONTICELLO     CLOUDY    19  18  93 S5        30.21F WCI  13
$$

NYZ026>034-041>043-020100-
NORTH


CITY           SKY/WX    TMP DP  RH WIND       PRES   REMARKS
WATERTOWN      LGT SNOW  26  22  84 S6        30.18F FOG     WCI  19
FORT DRUM      NOT AVBL
MASSENA        CLOUDY    25  22  88 SW7       30.17F WCI  17
SARANAC LAKE   LGT SNOW  21  18  88 SW9       30.06F FOG     WCI  11
PLATTSBURGH    CLOUDY    26  17  68 S8        30.17F WCI  18
$$

NYZ001>004-010>016-019>021-020100-
WEST


CITY           SKY/WX    TMP DP  RH WIND       PRES   REMARKS
NIAGARA FALLS  LGT SNOW  24  21  88 S8        30.17S FOG     WCI  15
BUFFALO        LGT SNOW  22  19  89 SW9       30.18S FOG     WCI  12
DUNKIRK        LGT SNOW  23  21  92 SW7       30.20S FOG     WCI  15
JAMESTOWN      MOCLDY    27  23  86 W5        30.13S WCI  21
WELLSVILLE     LGT SNOW  27  24  89 SW3       30.11S FOG
ROCHESTER      LGT SNOW  25  23  92 CALM      30.18F FOG
PENN YAN       LGT SNOW  27  24  89 S9        30.14F FOG     WCI  18
$$

             KEY
       WCI = WIND CHILL INDEX
       VSB = VISIBILITY
       HX  = HEAT INDEX
$$



USA.gov is the U.S. government's official web portal to all federal, state and local government web resources and services.